Location: Unspecified
(0.0000°N, 0.0000°E)
Time: 10:16:35
(UTC+00:00)

Tiangong - Pass Details

Date: 06 February 2026
Orbit: 386 x 391 km, 41.5° (Epoch: 15 February)

Event Time Altitude Azimuth Distance (km) Brightness Sun altitude
Exits shadow 04:23:48 10° 52° (NE) 1,390 1.1 -26.5°
Drops below altitude 10° 04:24:04 10° 56° (ENE) 1,411 1.2 -26.4°
Sets 04:27:38 0° 98° (E) 2,274 3.1 -25.5°
